Hauptseite
METAR-TAF:

METAR-TAF

Flughäfen :

Militärflugplatz Dübendorf

Dübendorf, Schweiz

Breite: 47-23-55N, Länge: 8-38-53E, Höhe: 448 m

Beobachtung

Neuester Wetterbericht von vor 11 Minuten, um 14:50 UTC
Wind 9 kt aus Ost, variierte zwischen Nordost und Ost/Südost
Temperatur 7°C
Luftfeuchtigkeit 45%
Luftdruck 1028 hPa
Sichtweite 10 km oder mehr
Aufgelockert bewölkt in der Höhe von 5300 ft

METAR: LSMD 261450Z 08009KT 040V120 9999 SCT053 07/M04 Q1028 RMK BLU+

Zeit: 16:01 (15:01 UTC)


TAF: fehlend

Wetterbeobachtungen und Prognosen von mehr als 4000 Flughäfen (METAR und TAF Bericht).

Die verfügbaren Stationen werden durch gelbe und rote Markierungen auf der Karte dargestellt.

Führen Sie die Maus auf sie, um den Namen der Station zu sehen.

Darauf klicken, um die Beobachtung von Wetterbeobachtungen und Prognosen zu sehen.

Um die Karte zu ändern : klicken Sie auf den grünen Tasten mit einem schwarzen Kreuz Zum Vergrößern, auf den grünen Button mit einem Gedankenstrich zu verkleinern, oder auf die grünen Pfeile für benachbarte Karten.


METAR-TAF: